{"data":{"norad_id":55495,"epoch":"2026-09-20T14:28:30.552096Z","epoch_age_seconds":91231,"freshness":"FRESH","line1":"1 55495U 23015AY  26263.60313139 -.00000270  00000+0 -29682-6 0  9997","line2":"2 55495  43.0026 300.7411 0001136 273.9483  86.1238 15.27575254200618","mean_motion":15.27575254,"eccentricity":0.0001136,"inclination_deg":43.0026,"raan_deg":300.7411,"arg_perigee_deg":273.9483,"mean_anomaly_deg":86.1238,"bstar":-2.9682e-7,"rev_number":20061,"period_min":94.26704158956,"perigee_km":482.2838749529,"apogee_km":483.84273966272,"semimajor_km":6861.2003073078,"source":"CELESTRAK","updated_at":"2026-09-21T09:00:33.260054Z"}}